Location: Houhaj�rvi
(61.2833°N, 23.0000°E)
Time: 02:44:29
(UTC+00:00)

Terra - Pass Details

Date: 27 February 2020
Orbit: 701 x 703 km, 98.2° (Epoch: 03 April)

Event Time Altitude Azimuth Distance (km) Brightness Sun altitude
Exits shadow 18:18:36 25° 59° (ENE) 1,424 3.0 -18.9°
Maximum altitude 18:19:04 25° 49° (NE) 1,409 3.1 -19.0°
Drops below altitude 10° 18:22:57 10° 355° (N) 2,188 4.6 -19.4°
Sets 18:25:31 0° 343° (NNW) 3,110 5.7 -19.7°
